Location: Edinburgh
(55.9500°N, 3.1600°W)
Time: 09:05:00
(UTC+01:00)

M-CUBED/EXP-1 PRIME - Visible Passes

Search period start: 17 October 2019 00:00
Search period end: 27 October 2019 00:00
Orbit: 429 x 669 km, 101.7° (Epoch: 16 October)

Date Brightness Start Highest point End Pass type
(mag) Time Alt. Az. Time Alt. Az. Time Alt. Az.
17 Oct ? 05:11:26 10° NNE 05:14:19 64° NNE 05:14:19 64° NNE visible
17 Oct ? 06:46:56 10° NNW 06:48:40 14° NW 06:50:01 11° WNW visible
18 Oct ? 05:06:52 10° NNE 05:09:43 61° NE 05:09:43 61° NE visible
18 Oct ? 06:42:09 10° NNW 06:44:12 15° NW 06:45:25 13° WNW visible
19 Oct ? 05:02:18 10° NNE 05:05:06 55° NE 05:05:06 55° NE visible
19 Oct ? 06:37:26 10° N 06:39:43 17° NW 06:40:48 15° WNW visible
20 Oct ? 04:57:44 10° NNE 05:00:31 49° ENE 05:00:31 49° ENE visible
20 Oct ? 06:32:43 10° N 06:35:13 19° NW 06:36:11 17° WNW visible
21 Oct ? 04:53:11 10° NNE 04:55:54 43° ENE 04:55:54 43° ENE visible
21 Oct ? 06:28:01 10° N 06:30:43 22° NW 06:31:36 20° WNW visible
22 Oct ? 04:48:39 10° NNE 04:51:18 38° ENE 04:51:18 38° ENE visible
22 Oct ? 06:23:21 10° N 06:26:12 25° NW 06:27:00 22° WNW visible
23 Oct ? 04:44:07 10° NE 04:46:43 34° ENE 04:46:43 34° ENE visible
23 Oct ? 06:18:41 10° N 06:21:41 28° NW 06:22:24 26° WNW visible
24 Oct ? 04:39:36 10° NE 04:42:08 30° E 04:42:08 30° E visible
24 Oct ? 06:14:01 10° N 06:17:10 32° WNW 06:17:49 29° W visible
25 Oct ? 04:35:05 10° NE 04:37:32 27° E 04:37:32 27° E visible
25 Oct ? 06:09:22 10° N 06:12:38 36° WNW 06:13:14 33° W visible
26 Oct ? 04:30:36 10° NE 04:32:57 24° E 04:32:57 24° E visible
26 Oct ? 06:04:43 10° N 06:08:06 41° WNW 06:08:39 38° W visible
